Regional Weather Roundup
Issued by NWS

Home | Current Version | Previous Version | Graphics & Text | Print | Product List | Glossary Off
Versions: 1 2 3 4 5 6 7 8 9 10 11 12 13 14 15 16 17 18 19 20 21 22 23 24 25 26 27 28 29 30 31 32 33 34 35 36 37 38 39 40 41 42 43 44 45 46 47 48 49 50

000
ASUS43 KTOP 090908
RWRKS

WEATHER ROUNDUP FOR KANSAS
NATIONAL WEATHER SERVICE GOODLAND KS
300 AM CST FRI DEC 09 2016

NOTE:  "FAIR" INDICATES FEW OR NO CLOUDS BELOW 12,000 FEET WITH NO
SIGNIFICANT WEATHER AND/OR OBSTRUCTIONS TO VISIBILITY.

KSZ001>006-013>018-027>032-041>047-091000-
NORTHWEST KANSAS

CITY           SKY/WX    TMP DP  RH WIND       PRES   REMARKS
GOODLAND       CLOUDY     4   0  83 SE7       30.32F
HAYS           CLOUDY    11   7  84 SE3       30.56F
HILL CITY      CLOUDY     6   2  83 CALM      30.53S
RUSSELL        CLOUDY     9   5  84 S3        30.57S
$$

KSZ061>065-074>080-084>089-091000-
SOUTHWEST KANSAS

CITY           SKY/WX    TMP DP  RH WIND       PRES   REMARKS
DODGE CITY     CLOUDY    19   8  62 SE10      30.50F WCI   7
ELKHART          N/A     22   2  42 S12         N/A  WCI  10
GARDEN CITY    CLOUDY    20   5  52 SE15      30.43F WCI   6
GREAT BEND     CLOUDY    10   6  84 CALM      30.59S
LIBERAL        CLOUDY    25   3  39 SE10      30.43F WCI  15
PRATT          CLOUDY    14   6  68 SE5       30.59S
$$

KSZ066>073-081>083-090>101-091000-
SOUTHEAST KANSAS

CITY           SKY/WX    TMP DP  RH WIND       PRES   REMARKS
CHANUTE        CLEAR     14   9  80 NW3       30.67R
COFFEYVILLE    CLEAR     16  11  80 CALM      30.69S
HUTCHINSON     CLOUDY     9   5  84 CALM      30.63R
MEDICINE LODGE   N/A     13   8  81 CALM      30.62R
NEWTON         CLOUDY    14   7  73 N5        30.63S
PARSONS        CLEAR     11   8  88 CALM      30.69R
WICHITA INTL   CLOUDY    14   9  80 CALM      30.64R
WICHITA JABRA  CLOUDY    16   8  71 N3        30.64R
WICHITA MCCONL CLOUDY    17   8  67 NE2       30.63S
WINFIELD       CLOUDY    14  10  84 CALM      30.66R
$$

KSZ007>012-019>026-033>040-048>060-102>105-091000-
NORTHEAST KANSAS

CITY           SKY/WX    TMP DP  RH WIND       PRES   REMARKS
CONCORDIA      CLOUDY    10   5  80 CALM      30.62R
EMPORIA        CLEAR     12   9  87 NW5       30.64S
LAWRENCE       CLEAR      8   6  92 W7        30.68R
MANHATTAN      CLEAR     10   5  80 CALM      30.66F
MARYSVILLE     CLEAR      9   5  85 CALM      30.64S
OLATHE IND     CLEAR     13   9  84 NW6       30.65R
OLATHE EXE     CLEAR     14   8  77 NW5       30.64R
SALINA         CLOUDY    12   6  77 CALM      30.65S
TOPEKA BILLARD CLEAR     14   8  77 W3        30.68R
TOPEKA FORBES  CLEAR     11   7  84 CALM      30.65F
$$



USA.gov is the U.S. government's official web portal to all federal, state and local government web resources and services.